GW7220 Weather Reports


time (UTC)temp
F
wind
direction
speed
knots
gust
knots
rain 1hr
in
rain 24hr
in
rain mn
in
humidity
%
barometer
mb
20260506182426 63 61 0.9 2.6 0.00 0.11 0.11 87 1005.9
20260506181923 63 87 1.7 6.1 0.00 0.11 0.11 86 1005.8
20260506181421 64 193 1.7 2.6 0.00 0.11 0.11 85 1005.9
20260506180918 64 99 1.7 6.1 0.00 0.11 0.11 84 1005.6
20260506180414 63 310 0.9 3.5 0.00 0.11 0.11 85 1005.7
20260506175911 63 182 1.7 3.5 0.00 0.11 0.11 85 1005.7
20260506175408 63 133 2.6 7.8 0.00 0.11 0.11 86 1005.8
20260506174905 63 74 0.0 9.6 0.00 0.11 0.11 86 1006.1
20260506174402 63 54 0.0 0.9 0.00 0.11 0.11 87 1006.0
20260506173859 63 330 3.5 6.1 0.00 0.11 0.11 86 1005.9
20260506173356 63 116 0.0 2.6 0.00 0.11 0.11 87 1005.8
20260506172853 63 65 1.7 6.1 0.00 0.11 0.11 87 1005.9
20260506172350 63 165 2.6 3.5 0.00 0.11 0.11 87 1006.0
20260506171847 63 177 2.6 6.1 0.00 0.11 0.11 88 1006.3
20260506171344 63 122 0.0 1.7 0.00 0.11 0.11 88 1006.2
20260506170842 64 160 1.7 2.6 0.00 0.11 0.11 87 1006.2
20260506170338 64 86 2.6 3.5 0.00 0.11 0.11 87 1006.0
20260506165837 64 137 1.7 2.6 0.00 0.11 0.11 88 1005.9
20260506165335 64 13 1.7 5.2 0.00 0.11 0.11 87 1006.0
20260506164831 64 209 1.7 1.7 0.00 0.11 0.11 89 1006.1
20260506164328 64 211 0.9 3.5 0.00 0.11 0.11 89 1006.2
20260506163825 64 38 0.0 1.7 0.00 0.11 0.11 90 1006.3
20260506163320 63 56 0.0 0.9 0.07 0.11 0.11 90 1005.9
20260506162815 63 69 0.0 0.9 0.07 0.11 0.11 90 1006.3
20260506162314 63 152 1.7 2.6 0.05 0.10 0.10 90 1006.6
20260506161811 63 76 0.0 2.6 0.12 0.10 0.10 90 1006.7
20260506161308 63 166 0.0 1.7 0.07 0.09 0.09 89 1007.2
20260506160805 63 81 0.0 0.9 0.05 0.08 0.08 90 1007.3
20260506160302 63 124 0.0 1.7 0.05 0.08 0.08 89 1007.3
20260506155801 63 97 0.9 1.7 0.07 0.07 0.07 89 1007.4
20260506155257 62 59 0.0 5.2 0.05 0.06 0.06 88 1007.6
20260506153410 63 59 0.0 0.9 0.12 0.04 0.04 87 1007.5
20260506152907 63 93 0.9 1.7 0.07 0.03 0.03 86 1007.0
20260506152404 63 97 0.0 0.9 0.05 0.02 0.02 84 1007.4
20260506151902 64 106 0.0 1.7 0.12 0.02 0.02 82 1007.6
20260506151359 65 90 0.9 1.7 0.07 0.01 0.01 79 1007.6
20260506150857 65 338 1.7 1.7 0.00 0.00 0.00 77 1007.4
20260506150352 65 242 1.7 3.5 0.00 0.00 0.00 76 1007.1
20260506145849 65 84 0.0 1.7 0.00 0.00 0.00 76 1007.0
20260506145345 65 150 1.7 2.6 0.00 0.00 0.00 75 1007.1
20260506144843 65 143 1.7 2.6 0.00 0.00 0.00 75 1007.2
20260506144339 66 142 0.9 5.2 0.00 0.00 0.00 73 1007.5
20260506143838 66 133 1.7 2.6 0.00 0.00 0.00 72 1007.4
20260506143335 67 135 1.7 3.5 0.00 0.00 0.00 69 1007.5
20260506142833 67 162 1.7 5.2 0.00 0.00 0.00 68 1007.3
20260506142331 67 121 1.7 2.6 0.00 0.00 0.00 67 1007.4
20260506141829 68 148 1.7 2.6 0.00 0.00 0.00 68 1007.4
20260506141327 68 183 1.7 3.5 0.00 0.00 0.00 65 1007.5
20260506140824 68 171 7.0 8.7 0.00 0.00 0.00 64 1007.3
20260506140321 69 206 5.2 7.0 0.00 0.00 0.00 64 1007.1
20260506135818 69 76 0.9 3.5 0.00 0.00 0.00 64 1007.1
20260506135314 69 177 0.9 1.7 0.00 0.00 0.00 65 1007.2
20260506134811 68 156 1.7 2.6 0.00 0.00 0.00 68 1007.1
20260506134308 67 242 1.7 3.5 0.00 0.00 0.00 68 1007.1
20260506133804 67 126 2.6 5.2 0.00 0.00 0.00 68 1007.4
20260506133301 67 83 3.5 6.1 0.00 0.00 0.00 69 1007.5
20260506132758 67 183 1.7 7.0 0.00 0.00 0.00 69 1007.1
20260506132255 67 96 1.7 2.6 0.00 0.00 0.00 70 1007.3
20260506131754 67 135 0.0 1.7 0.00 0.00 0.00 71 1007.3
20260506131249 67 96 0.9 1.7 0.00 0.00 0.00 71 1007.4
20260506130746 67 167 0.9 5.2 0.00 0.00 0.00 70 1007.6
20260506130243 67 80 0.9 2.6 0.00 0.00 0.00 70 1007.6
20260506125741 68 72 0.0 2.6 0.00 0.00 0.00 69 1007.8
20260506125239 68 182 2.6 3.5 0.00 0.00 0.00 69 1007.4
20260506124737 67 16 0.9 5.2 0.00 0.00 0.00 69 1007.6
20260506124234 67 185 3.5 3.5 0.00 0.00 0.00 70 1007.4
20260506123731 67 100 1.7 6.1 0.00 0.00 0.00 70 1007.4
20260506123230 67 59 0.9 2.6 0.00 0.00 0.00 70 1007.4
20260506122726 67 104 1.7 2.6 0.00 0.00 0.00 70 1007.0
20260506122224 67 93 0.9 3.5 0.00 0.00 0.00 70 1007.3
20260506121722 66 133 1.7 3.5 0.00 0.00 0.00 71 1007.3
20260506121218 66 335 1.7 3.5 0.00 0.00 0.00 70 1007.3
20260506120716 66 78 0.9 6.1 0.00 0.00 0.00 71 1007.2
20260506120213 65 76 0.9 1.7 0.00 0.00 0.00 75 1007.2
20260506115711 65 45 0.9 1.7 0.00 0.00 0.00 74 1007.4
20260506115209 64 176 0.9 1.7 0.00 0.00 0.00 74 1007.3
20260506114706 64 109 0.9 5.2 0.00 0.00 0.00 75 1007.2
20260506114204 65 118 1.7 1.7 0.00 0.00 0.00 74 1007.1
20260506113703 64 68 0.9 3.5 0.00 0.00 0.00 75 1006.9
20260506113159 64 205 0.9 2.6 0.00 0.00 0.00 75 1006.9
20260506112655 64 87 2.6 3.5 0.00 0.00 0.00 76 1007.2
20260506112153 64 129 0.9 2.6 0.00 0.00 0.00 76 1007.2
20260506111650 64 58 0.0 0.9 0.00 0.00 0.00 75 1007.0
20260506111148 64 26 0.9 3.5 0.00 0.00 0.00 75 1007.3
20260506110646 64 103 0.0 2.6 0.00 0.00 0.00 76 1006.9
20260506110143 64 68 0.0 2.6 0.00 0.00 0.00 76 1007.2
20260506105639 64 165 1.7 6.1 0.00 0.00 0.00 76 1007.0
20260506105136 64 71 0.9 1.7 0.00 0.00 0.00 77 1007.0
20260506104634 64 64 0.9 1.7 0.00 0.00 0.00 77 1007.1
20260506104131 64 97 0.9 1.7 0.00 0.00 0.00 77 1007.2
20260506103629 63 25 1.7 3.5 0.00 0.00 0.00 78 1006.8
20260506103125 63 80 0.0 2.6 0.00 0.00 0.00 78 1007.2
20260506102624 63 186 0.9 1.7 0.00 0.00 0.00 78 1007.2
20260506102121 63 204 1.7 5.2 0.00 0.00 0.00 79 1007.0
20260506101617 63 87 0.9 1.7 0.00 0.00 0.00 79 1007.0
20260506101114 63 93 0.9 1.7 0.00 0.00 0.00 79 1007.0
20260506100613 62 136 1.7 2.6 0.00 0.00 0.00 79 1007.1
20260506100110 62 123 0.9 2.6 0.00 0.00 0.00 80 1007.1
20260506095609 63 185 1.7 2.6 0.00 0.00 0.00 79 1007.2
20260506095105 63 118 0.9 1.7 0.00 0.00 0.00 79 1007.2
20260506094603 63 126 1.7 6.1 0.00 0.00 0.00 79 1006.9
20260506094100 63 104 0.9 1.7 0.00 0.00 0.00 79 1006.9
20260506093558 63 187 0.9 1.7 0.00 0.00 0.00 78 1007.0
20260506093055 63 126 2.6 3.5 0.00 0.00 0.00 78 1007.0
20260506092553 63 71 3.5 5.2 0.00 0.00 0.00 78 1006.8
20260506092050 63 170 0.9 3.5 0.00 0.00 0.00 78 1007.1
20260506091548 64 138 0.9 2.6 0.00 0.00 0.00 77 1007.0
20260506091045 64 199 1.7 2.6 0.00 0.00 0.00 77 1007.1
20260506090543 64 136 0.9 2.6 0.00 0.00 0.00 77 1007.1
20260506090039 64 177 1.7 6.1 0.00 0.00 0.00 77 1007.1
20260506085536 64 54 0.9 2.6 0.00 0.00 0.00 77 1007.3
20260506085032 64 149 0.0 2.6 0.00 0.00 0.00 77 1007.0
20260506084530 64 111 0.9 2.6 0.00 0.00 0.00 77 1006.9
20260506084025 64 214 2.6 3.5 0.00 0.00 0.00 77 1007.1
20260506083523 64 195 0.9 3.5 0.00 0.00 0.00 78 1007.1
20260506083020 64 106 0.9 1.7 0.00 0.00 0.00 78 1007.1
20260506082517 64 135 0.9 3.5 0.00 0.00 0.00 78 1006.8
20260506082012 64 297 0.9 3.5 0.00 0.00 0.00 77 1007.2
20260506081511 64 113 1.7 3.5 0.00 0.00 0.00 78 1007.4
20260506081008 63 129 1.7 2.6 0.00 0.00 0.00 78 1007.4
20260506080505 64 115 3.5 3.5 0.00 0.00 0.00 78 1007.2
20260506073449 64 74 0.0 1.7 0.00 0.00 0.00 77 1007.5
20260506072946 64 198 0.9 2.6 0.00 0.00 0.00 77 1007.4
20260506072443 64 77 0.0 1.7 0.00 0.00 0.00 77 1007.5
20260506071941 64 72 0.9 1.7 0.00 0.00 0.00 77 1007.5
20260506071439 64 95 0.0 2.6 0.00 0.00 0.00 77 1007.5
20260506070935 64 126 0.9 1.7 0.00 0.00 0.00 77 1007.7
20260506070432 64 91 0.0 0.9 0.00 0.00 0.00 76 1007.6
20260506062410 65 107 0.0 1.7 0.00 0.00 0.00 74 1007.9
20260506061906 65 138 1.7 3.5 0.00 0.00 0.00 74 1007.8
20260506061403 65 126 0.9 1.7 0.00 0.00 0.00 73 1007.9
20260506060900 65 160 0.9 1.7 0.00 0.00 0.00 73 1007.8
20260506060358 65 176 0.9 1.7 0.00 0.00 0.00 73 1007.8
20260506051330 66 116 1.7 2.6 0.00 0.00 0.00 69 1008.2
20260506050828 67 148 0.9 1.7 0.00 0.00 0.00 69 1008.2
20260506050325 67 152 0.9 2.6 0.00 0.00 0.00 68 1008.1
20260506044815 67 7 4.3 7.8 0.00 0.00 0.00 68 1008.5
20260506044313 67 116 2.6 2.6 0.00 0.00 0.00 67 1008.1
20260506043810 67 179 0.9 1.7 0.00 0.00 0.00 67 1008.4
20260506043307 67 157 1.7 2.6 0.00 0.00 0.00 67 1008.6
20260506042806 67 108 0.9 2.6 0.00 0.00 0.00 66 1008.4
20260506042305 67 169 1.7 1.7 0.00 0.00 0.00 66 1008.2
20260506041803 67 233 2.6 5.2 0.00 0.00 0.00 65 1008.1
20260506041259 67 142 0.9 3.5 0.00 0.00 0.00 65 1008.3
20260506040756 68 116 0.9 1.7 0.00 0.00 0.00 65 1008.1
20260506040254 68 137 1.7 6.1 0.00 0.00 0.00 64 1008.2
20260506035750 68 142 1.7 3.5 0.00 0.00 0.00 63 1008.2
20260506035247 68 186 1.7 2.6 0.00 0.00 0.00 64 1008.2
20260506034744 68 190 2.6 7.0 0.00 0.00 0.00 63 1008.2
20260506034241 68 40 0.9 3.5 0.00 0.00 0.00 63 1007.9
20260506033738 68 135 0.9 3.5 0.00 0.00 0.00 63 1008.0
20260506033236 68 147 0.9 2.6 0.00 0.00 0.00 63 1008.1
20260506032732 68 167 0.9 2.6 0.00 0.00 0.00 63 1007.9
20260506032229 67 95 0.9 3.5 0.00 0.00 0.00 63 1008.2
20260506031726 68 155 0.9 1.7 0.00 0.00 0.00 63 1008.3
20260506031223 68 93 0.0 3.5 0.00 0.00 0.00 62 1007.9
20260506030722 68 114 0.9 1.7 0.00 0.00 0.00 61 1008.4
20260506030219 68 168 2.6 5.2 0.00 0.00 0.00 61 1008.2
20260506025715 68 80 0.9 1.7 0.00 0.00 0.00 62 1008.2
20260506025211 68 64 1.7 2.6 0.00 0.00 0.00 61 1008.1
20260506024709 68 138 0.9 3.5 0.00 0.00 0.00 61 1008.2
20260506024205 68 59 0.0 3.5 0.00 0.00 0.00 61 1008.2
20260506023701 68 130 0.9 2.6 0.00 0.00 0.00 60 1008.4
20260506023159 69 75 1.7 2.6 0.00 0.00 0.00 60 1008.1
20260506022656 69 130 0.9 1.7 0.00 0.00 0.00 59 1008.3
20260506022153 69 161 2.6 5.2 0.00 0.00 0.00 60 1008.3
20260506021651 69 191 1.7 3.5 0.00 0.00 0.00 59 1008.3
20260506021148 69 111 1.7 5.2 0.00 0.00 0.00 59 1008.3
20260506020645 69 82 1.7 3.5 0.00 0.00 0.00 59 1008.4
20260506020143 69 49 0.9 2.6 0.00 0.00 0.00 58 1008.2
20260506015640 70 114 1.7 5.2 0.00 0.00 0.00 57 1008.1
20260506015137 70 164 2.6 8.7 0.00 0.00 0.00 57 1008.1
20260506014635 70 173 1.7 2.6 0.00 0.00 0.00 57 1008.2
20260506014130 70 86 0.9 1.7 0.00 0.00 0.00 55 1008.2
20260506013628 71 37 1.7 2.6 0.00 0.00 0.00 54 1007.9
20260506013125 71 143 0.9 1.7 0.00 0.00 0.00 54 1007.9
20260506012621 71 196 2.6 3.5 0.00 0.00 0.00 52 1007.9
20260506012118 71 135 1.7 2.6 0.00 0.00 0.00 51 1008.0
20260506011616 71 155 2.6 3.5 0.00 0.00 0.00 50 1007.9
20260506011112 72 190 1.7 2.6 0.00 0.00 0.00 49 1007.9
20260506010611 72 166 0.9 1.7 0.00 0.00 0.00 49 1007.7
20260506010108 72 170 0.9 1.7 0.00 0.00 0.00 48 1007.6
20260506005605 73 136 0.9 1.7 0.00 0.00 0.00 48 1007.8
20260506005101 73 96 0.9 2.6 0.00 0.00 0.00 46 1007.6
20260506004558 73 132 0.0 2.6 0.00 0.00 0.00 45 1007.3
20260506004055 74 187 0.9 2.6 0.00 0.00 0.00 44 1007.4
20260506003551 74 171 1.7 1.7 0.00 0.00 0.00 43 1007.6
20260506003047 74 145 1.7 2.6 0.00 0.00 0.00 43 1007.2
20260506002543 75 212 0.9 3.5 0.00 0.00 0.00 43 1007.5
20260506002039 75 124 1.7 3.5 0.00 0.00 0.00 43 1007.2
20260506001536 75 176 0.0 3.5 0.00 0.00 0.00 43 1006.9
20260506001033 75 113 1.7 3.5 0.00 0.00 0.00 42 1007.0
20260506000530 75 139 1.7 2.6 0.00 0.00 0.00 43 1007.1
20260506000028 75 172 0.9 6.1 0.00 0.00 0.00 44 1007.0
20260505235526 75 150 0.9 1.7 0.00 0.00 0.00 44 1007.0
20260505235022 75 121 1.7 5.2 0.00 0.00 0.00 44 1007.0
20260505234519 75 2 0.9 3.5 0.00 0.00 0.00 44 1007.0
20260505234016 75 146 1.7 5.2 0.00 0.00 0.00 44 1006.7
20260505233514 76 98 2.6 2.6 0.00 0.00 0.00 43 1006.9
20260505233011 76 124 1.7 3.5 0.00 0.00 0.00 43 1006.8
20260505232509 76 81 1.7 6.1 0.00 0.00 0.00 44 1006.6
20260505232006 76 237 1.7 3.5 0.00 0.00 0.00 43 1006.7
20260505231503 77 187 0.9 2.6 0.00 0.00 0.00 43 1006.4
20260505231001 76 196 4.3 6.1 0.00 0.00 0.00 42 1006.7
20260505230458 77 146 0.9 3.5 0.00 0.00 0.00 42 1006.6
20260505225954 77 46 0.9 2.6 0.00 0.00 0.00 42 1006.7
20260505225452 77 190 2.6 6.1 0.00 0.00 0.00 40 1006.6
20260505224948 78 164 2.6 7.8 0.00 0.00 0.00 41 1006.6
20260505224445 78 91 2.6 3.5 0.00 0.00 0.00 40 1006.6
20260505223942 79 143 1.7 6.1 0.00 0.00 0.00 38 1006.6
20260505223439 79 179 3.5 6.1 0.00 0.00 0.00 37 1006.3
20260505222935 80 91 0.9 3.5 0.00 0.00 0.00 37 1006.4
20260505222432 80 115 2.6 7.8 0.00 0.00 0.00 35 1006.6
20260505221927 80 204 1.7 3.5 0.00 0.00 0.00 36 1006.4
20260505221425 80 133 0.9 7.8 0.00 0.00 0.00 36 1006.4
20260505220922 80 138 2.6 3.5 0.00 0.00 0.00 35 1006.6
20260505220419 80 210 2.6 7.8 0.00 0.00 0.00 35 1006.4
20260505215916 80 182 1.7 11.3 0.00 0.00 0.00 33 1006.4
20260505215415 81 151 1.7 1.7 0.00 0.00 0.00 34 1006.3
20260505214912 81 134 1.7 5.2 0.00 0.00 0.00 34 1006.3
20260505214409 82 330 2.6 7.0 0.00 0.00 0.00 34 1006.1
20260505213907 82 245 3.5 5.2 0.00 0.00 0.00 32 1006.3
20260505213404 81 163 1.7 1.7 0.00 0.00 0.00 33 1006.3
20260505212900 81 167 3.5 5.2 0.00 0.00 0.00 33 1006.2
20260505212357 82 147 1.7 5.2 0.00 0.00 0.00 31 1006.6
20260505211854 82 183 2.6 3.5 0.00 0.00 0.00 30 1006.3
20260505211351 82 28 0.9 2.6 0.00 0.00 0.00 34 1006.3
20260505210847 82 129 0.9 6.1 0.00 0.00 0.00 30 1006.2
20260505210345 82 220 3.5 5.2 0.00 0.00 0.00 31 1006.3
20260505205841 82 200 3.5 7.0 0.00 0.00 0.00 32 1006.2
20260505205340 82 67 0.9 3.5 0.00 0.00 0.00 30 1006.2
20260505204836 82 160 1.7 8.7 0.00 0.00 0.00 30 1006.5
20260505204334 83 179 1.7 7.8 0.00 0.00 0.00 29 1006.2
20260505203831 83 319 2.6 5.2 0.00 0.00 0.00 28 1006.3
20260505203327 84 133 3.5 11.3 0.00 0.00 0.00 27 1006.2
20260505202824 83 173 2.6 5.2 0.00 0.00 0.00 29 1006.0
20260505202320 83 208 3.5 6.1 0.00 0.00 0.00 29 1006.2
20260505201817 84 279 5.2 6.1 0.00 0.00 0.00 28 1006.1
20260505201314 83 345 6.1 9.6 0.00 0.00 0.00 29 1006.0
20260505200813 84 180 2.6 5.2 0.00 0.00 0.00 33 1006.1
20260505200309 83 167 2.6 6.1 0.00 0.00 0.00 30 1006.3
20260505195804 84 133 4.3 7.0 0.00 0.00 0.00 28 1006.2
20260505195305 83 202 2.6 3.5 0.00 0.00 0.00 30 1006.4
20260505194759 84 143 2.6 5.2 0.00 0.00 0.00 33 1006.4
20260505194256 83 217 1.7 5.2 0.00 0.00 0.00 31 1006.1
20260505193756 83 191 1.7 3.5 0.00 0.00 0.00 32 1006.4
20260505193255 83 192 1.7 9.6 0.00 0.00 0.00 31 1006.4
20260505192753 84 167 1.7 6.1 0.00 0.00 0.00 31 1006.3
20260505192250 84 183 3.5 13.9 0.00 0.00 0.00 31 1006.3
20260505191748 84 143 3.5 5.2 0.00 0.00 0.00 36 1006.7
20260505191246 84 45 1.7 5.2 0.00 0.00 0.00 35 1006.6
20260505190742 84 57 1.7 6.1 0.00 0.00 0.00 34 1006.7
20260505190237 84 98 1.7 7.8 0.00 0.00 0.00 34 1006.8
20260505185734 84 129 3.5 6.1 0.00 0.00 0.00 35 1006.8
20260505185231 84 56 0.9 2.6 0.00 0.00 0.00 38 1007.0
20260505184726 83 145 0.9 6.1 0.00 0.00 0.00 36 1006.9
20260505184224 83 259 2.6 6.1 0.00 0.00 0.00 35 1007.2
20260505183720 83 204 3.5 7.0 0.00 0.00 0.00 37 1007.2
20260505183218 82 11 0.9 3.5 0.00 0.00 0.00 36 1007.1